Probability
0 0 0 0 0 0 0 0 0 0 0 0 0 0 0 0 0 0 0 0 0 0 0 0 0 0 0 0 0 0 0 0 0 0 0 0 0 0
0 0 0 0 0 0 0 0 0 0 0 0 0 0 0 0 0 0 0 0 0 0 0 0 0 0 0 0 0 0 0 0 0 0 0 0 0 0
0 0 0 0 0 0 0 0 0 0 0 0 0 0 0 0 0 0 0 0 0 0 0 0 0 0 0 0 0 0 0 0 0 0 0 0 0 0
0 0 0 0 0 0 0 0 0 0 0 0 0 0 0 0 0 0 0 0 0 0 0 0 0 0 0 0 0 0 0 0 0 0 0 0 0 0
0 0 0 0 0 0 0 0 0 0 0 0 0 0 0 0 0 0 0 0 0 0 0 0 0 0 0 0 0 0 0 0 0 0 0 0 0 0
0 0 0 0 0 0 0 0 0 0 0 0 0 0 0 0 0 0 0 0 0 0 0 0 0 0 0 0 0 0 0 0 0 0 0 0 0 0
0 0 0 0 0 0 0 0 0 0 0 0 0 0 0 0 0 0 0 0 0 0 0 0 0 0 0 0 0 0 0 0 0 0 0 0 0 0
0 0 0 0 0 0 0 0 0 0 0 0 0 0 0 0 0 0 0 0 0 0 0 0 0 0 0 0 0 0 0 0 0 0 0 0 0 0
0 0 0 0 0 0 0 0 0 0 0 0 0 0 0 0 0 0 0 0 0 0 0 0 0 0 0 0 0 0 0 0 0 0 0 0 0 0
0 0 0 0 0 0 0 0 0 0 0 0 0 0 0 0 0 0 0 0 0 0 0 0 0 0 0 0 0 0 0 0 0 0 0 0 0 0
0 0 0 0 0 0 0 0 0 0 0 0 0 0 0 0 0 0 0 0 0 0 0 0 0 0 0 0 0 0 0 0 0 0 0 0 0 0
0 0 0 0 0 0 0 0 0 0 0 0 0 0 0 0 0 0 0 0 0 0 0 0 0 0 0 0 0 0 0 0 0 0 0 0 0 0
0 0 0 0 0 0 0 0 0 0 0 0 0 0 0 0 0 0 0 0 0 0 0 0 0 0 0 0 0 0 0 0 0 0 0 0 0 0
0 0 0 0 0 0 0 0 0 0 0 0 0 0 0 0 0 0 0 0 0 0 0 0 0 0 0 0 0 0 0 0 0 0 0 0 0 0
0 0 0 0 0 0 0 0 0 0 0 0 0 0 0 0 0 0 0 0 0 0 0 0 0 0 0 0 0 0 0 0 0 0 0 0 0 0
0 0 0 0 0 0 0 0 0 0 0 0 0 0 0 0 0 0 0 0 0 0 0 0 0 0 0 0 0 0 0 0 0 0 0 0 0 0
0 0 0 0 0 0 0 0 0 0 0 0 0 0 0 0 0 0 0 0 0 0 0 0 0 0 0 0 0 0 0 0 0 0 0 0 0 0
0 0 0 0 0 0 0 0 0 0 0 0 0 0 0 0 0 0 0 0 0 0 0 0 0 0 0 0 0 0 0 0 0 0 0 0 0 0
0 0 0 0 0 0 0 0 0 0 0 0 0 0 0 0 0 0 0 0 0 0 0 0 0 0 0 0 0 0 0 0 0 0 0 0 0 0
0 0 0 0 0 0 0 0 0 0 0 0 0 0 0 0 0 0 0 0 0 0 0 0 0 0 0 0 0 0 0 0 0 0 0 0 0 0
0 0 0 0 0 0 0 0 0 0 0 0 0 0 0 0 0 0 0 0 0 0 0 0 0 0 0 0 0 0 0 0 0 0 0 0 0 0
0 0 0 0 0 0 0 0 0 0 0 0 0 0 0 0 0 0 0 0 0 0 0 0 0 0 0 0 0 0 0 0 0 0 0 0 0 0
0 0 0 0 0 0 0 0 0 0 0 0 0 0 0 0 0 0 0 0 0 0 0 0 0 0 0 0 0 0 0 0 0 0 0 0 0 0
Wind_Speed
13 14 13 11 9 9 8 8 9 10 10 9 9 10 12 11 18 15 15 25 30 30 28 27 25 24 23 21 20 18 17 16 15 14 14 14 14 15
10 13 14 11 10 9 9 10 11 12 13 5 9 7 10 11 18 16 16 25 28 29 29 28 26 25 23 22 20 19 18 16 16 15 15 14 14 15
11 12 14 12 11 10 10 10 11 11 17 11 5 7 10 12 11 12 12 14 14 27 29 28 26 24 23 21 20 19 18 17 16 15 15 15 15 16
12 12 14 10 13 11 10 12 11 12 13 16 6 6 10 10 10 12 11 11 11 21 27 27 26 25 23 22 20 19 18 16 15 14 15 15 15 16
12 12 12 10 12 10 11 11 10 10 12 12 10 5 5 5 7 8 9 9 10 15 22 25 25 24 23 22 20 19 17 16 14 14 15 15 15 16
10 11 10 10 11 10 10 11 10 10 10 11 10 5 4 4 6 7 9 9 9 9 14 16 19 22 22 21 20 17 16 15 15 15 15 14 15 15
10 9 10 11 12 11 9 9 9 10 9 10 10 7 6 6 8 7 9 7 7 7 8 8 9 8 10 16 17 16 16 15 15 15 14 14 14 15
10 9 9 9 12 15 16 15 13 11 11 10 10 10 10 9 7 8 7 6 6 7 8 8 7 8 7 6 13 17 16 15 14 14 14 14 13 14
9 8 7 6 8 9 12 15 15 17 17 12 12 12 9 9 10 10 10 8 5 6 7 6 6 8 6 8 17 16 16 15 14 13 12 12 12 12
8 8 8 8 6 8 8 9 10 10 11 10 9 9 7 7 10 9 8 6 4 4 6 5 5 5 4 5 13 15 15 13 12 11 11 11 10 11
7 7 7 8 10 12 9 9 9 7 9 10 10 8 8 10 10 7 7 7 4 3 4 4 4 3 3 3 7 12 12 11 10 9 8 7 8 8
5 5 7 9 11 11 8 7 9 6 3 4 5 5 5 9 13 9 8 7 4 3 5 5 3 3 2 1 1 2 3 6 7 5 5 6 7 3
5 4 4 9 11 10 9 6 7 5 2 2 2 2 3 3 5 5 5 6 5 3 5 5 4 3 3 2 1 1 2 2 1 1 2 5 6 5
6 4 4 8 9 8 6 5 6 3 1 1 2 2 2 2 3 4 4 3 2 3 6 6 4 4 4 3 2 2 1 1 2 2 1 4 5 8
4 6 6 7 5 3 4 3 0 1 2 2 2 1 1 3 4 4 4 5 6 4 4 3 3 4 3 3 3 2 2 2 2 2 2 2 2 3
3 3 4 4 2 2 2 1 1 2 2 2 2 2 2 3 3 3 2 3 3 3 4 4 3 4 2 2 3 2 3 2 2 2 2 2 3 3
2 1 2 2 2 2 3 3 3 3 2 2 3 3 3 3 2 2 2 2 2 2 1 2 4 4 3 2 2 2 2 2 2 2 2 3 4 4
2 2 2 2 2 2 3 3 3 3 2 2 3 2 2 2 2 2 2 2 2 2 2 2 2 2 2 2 1 2 2 2 2 2 2 2 4 4
3 2 2 3 3 3 3 2 2 2 2 2 2 2 2 2 2 2 2 1 1 1 1 1 2 2 2 2 1 2 3 2 2 1 2 3 4 5
3 3 3 3 3 3 3 3 3 3 3 3 3 2 2 2 2 2 1 1 1 1 1 1 1 2 3 2 2 1 2 2 2 2 2 3 4 8
4 4 3 3 3 3 3 3 3 3 3 3 2 2 2 2 2 1 1 2 1 1 1 1 0 1 2 2 1 1 2 3 3 3 3 3 3 3
3 3 3 3 3 3 3 3 3 3 3 3 2 2 2 2 2 2 1 1 1 1 1 1 1 1 1 2 2 2 1 2 4 8 8 7 3 3
3 3 3 3 3 3 3 3 3 3 2 2 2 2 2 1 1 1 1 1 1 1 1 1 0 0 0 1 1 1 2 2 2 3 4 7 10 13
Wind_Direction
228 229 233 234 229 226 220 216 237 263 258 213 217 220 218 217 223 221 221 226 227 228 227 226 226 227 228 229 231 235 239 242 248 254 261 269 277 283
228 230 233 234 233 227 225 225 226 245 267 229 213 209 207 216 221 219 222 225 228 228 228 227 226 227 229 229 231 234 239 243 249 255 262 269 277 283
235 234 237 232 234 231 228 227 228 231 256 262 211 199 199 213 217 216 219 221 224 226 228 228 227 227 228 229 231 234 239 244 249 257 265 271 277 283
246 243 243 236 235 234 231 232 232 228 242 261 244 202 207 210 211 212 215 217 219 224 226 227 227 226 226 227 230 234 238 243 248 257 264 270 277 282
251 249 248 240 241 238 235 237 236 234 235 250 253 210 202 194 203 212 212 214 215 220 223 225 226 225 225 226 229 232 235 239 245 253 260 268 275 281
254 251 250 243 244 242 241 242 241 241 239 245 249 220 193 176 189 204 212 210 213 208 217 221 224 226 226 227 229 230 231 236 243 250 257 265 271 277
258 252 251 249 248 247 247 246 240 244 243 242 244 229 204 184 201 197 208 200 206 198 201 209 211 213 213 226 228 227 231 236 243 250 255 262 268 275
261 256 252 249 251 252 253 252 246 245 245 242 241 236 226 210 198 193 190 180 201 191 193 203 195 207 208 208 221 226 230 235 241 248 254 261 268 275
260 261 258 249 247 253 258 260 257 252 248 246 247 240 229 207 193 194 193 190 189 164 174 196 191 209 203 212 220 226 230 233 238 246 252 260 268 277
258 258 262 263 250 251 255 258 257 255 253 248 250 248 234 204 194 192 185 158 97 141 161 182 182 197 189 196 218 222 227 230 234 239 249 261 272 281
263 255 256 262 263 258 256 260 264 264 264 255 251 245 227 196 174 157 156 158 154 165 170 168 163 161 166 190 213 221 224 227 229 235 248 263 279 291
272 259 253 259 267 263 252 254 262 264 252 259 247 232 205 184 174 169 164 166 149 162 173 163 150 144 161 164 171 187 210 216 218 229 251 273 285 294
280 277 266 273 273 270 262 255 260 263 240 239 225 170 148 151 162 159 162 166 163 163 164 158 150 154 157 149 156 167 164 159 161 214 271 278 281 287
280 279 274 280 281 279 276 267 265 252 158 138 122 120 127 133 133 134 132 122 111 135 156 153 151 161 155 163 181 162 152 157 164 176 193 270 284 291
284 286 287 288 288 292 294 291 251 134 126 126 125 116 112 117 110 101 93 88 79 81 115 130 142 149 158 171 162 154 164 185 184 183 196 230 257 275
306 311 315 323 341 8 6 25 76 105 120 122 112 93 88 96 103 104 109 108 94 68 56 68 108 139 151 153 158 171 171 179 178 195 214 237 251 254
317 351 9 10 17 29 42 48 53 65 70 72 86 88 86 85 78 72 88 100 115 132 104 59 56 60 68 126 163 182 177 187 192 198 210 240 252 255
44 38 29 30 32 35 43 47 47 52 59 77 88 93 98 102 94 78 76 96 112 121 123 121 109 70 49 8 190 177 176 189 191 199 203 233 261 258
51 48 41 34 34 37 40 47 45 41 55 75 85 89 94 97 101 103 93 88 94 104 116 132 144 140 160 240 267 195 173 173 173 207 221 224 258 273
41 46 40 35 34 35 37 41 47 46 52 62 68 72 80 94 104 112 113 113 116 111 112 142 176 181 194 203 193 238 214 179 184 216 238 250 264 279
39 41 36 33 33 35 38 41 48 51 51 60 63 63 66 80 93 100 108 113 113 136 173 200 178 85 86 88 94 277 277 248 237 234 236 261 274 269
40 40 33 31 30 31 33 40 48 50 49 52 54 55 55 69 95 111 121 130 140 144 135 74 72 88 122 181 216 225 258 301 301 291 275 254 234 247
31 34 33 29 26 25 29 40 49 46 42 45 47 47 53 61 68 89 107 111 116 117 102 96 62 61 108 190 215 236 262 286 299 305 291 290 286 285